TimeCDT,TemperatureF,Dew PointF,Humidity,Sea Level PressureIn,VisibilityMPH,Wind Direction,Wind SpeedMPH,Gust SpeedMPH,PrecipitationIn,Events,Conditions,WindDirDegrees,DateUTC
12:56 AM,18.0,14.0,84,30.35,-9999.0,Calm,Calm,-,N/A,,Unknown,0,2013-04-02 05:56:00
1:56 AM,18.0,14.0,84,30.35,-9999.0,Calm,Calm,-,N/A,,Unknown,0,2013-04-02 06:56:00
2:56 AM,17.1,14.0,88,30.35,-9999.0,West,3.5,-,N/A,,Unknown,280,2013-04-02 07:56:00
3:56 AM,15.1,12.9,91,30.35,-9999.0,Calm,Calm,-,N/A,,Unknown,0,2013-04-02 08:56:00
4:56 AM,14.0,12.0,92,30.35,-9999.0,Calm,Calm,-,N/A,,Unknown,0,2013-04-02 09:56:00
5:56 AM,14.0,12.0,92,30.36,-9999.0,Calm,Calm,-,N/A,,Unknown,0,2013-04-02 10:56:00
6:56 AM,14.0,10.9,88,30.38,-9999.0,West,3.5,-,N/A,,Unknown,280,2013-04-02 11:56:00
7:56 AM,17.1,14.0,88,30.41,-9999.0,Calm,Calm,-,N/A,,Unknown,0,2013-04-02 12:56:00
8:56 AM,21.0,18.0,88,30.42,-9999.0,Calm,Calm,-,N/A,,Unknown,0,2013-04-02 13:56:00
9:56 AM,25.0,16.0,69,30.43,-9999.0,Calm,Calm,-,N/A,,Unknown,0,2013-04-02 14:56:00
10:56 AM,26.1,16.0,66,30.43,-9999.0,NNE,3.5,-,N/A,,Unknown,20,2013-04-02 15:56:00
11:56 AM,28.0,17.1,63,30.43,-9999.0,Calm,Calm,-,N/A,,Unknown,0,2013-04-02 16:56:00
12:56 PM,30.0,19.0,64,30.43,-9999.0,Calm,Calm,-,N/A,,Unknown,0,2013-04-02 17:56:00
1:56 PM,30.9,18.0,59,30.43,-9999.0,ENE,6.9,-,N/A,,Unknown,60,2013-04-02 18:56:00
2:56 PM,30.0,15.1,54,30.42,-9999.0,East,5.8,-,N/A,,Unknown,100,2013-04-02 19:56:00
3:56 PM,30.0,16.0,56,30.42,-9999.0,East,5.8,-,N/A,,Unknown,90,2013-04-02 20:56:00
4:56 PM,30.0,16.0,56,30.42,-9999.0,East,6.9,-,N/A,,Unknown,80,2013-04-02 21:56:00
5:56 PM,30.0,16.0,56,30.42,-9999.0,East,8.1,-,N/A,,Unknown,80,2013-04-02 22:56:00
6:56 PM,28.0,17.1,63,30.42,-9999.0,East,5.8,-,N/A,,Unknown,100,2013-04-02 23:56:00
7:56 PM,26.1,18.0,71,30.42,-9999.0,East,3.5,-,N/A,,Unknown,100,2013-04-03 00:56:00
8:56 PM,23.0,18.0,81,30.42,-9999.0,SE,4.6,-,N/A,,Unknown,130,2013-04-03 01:56:00
9:56 PM,23.0,19.0,85,30.42,-9999.0,SE,3.5,-,N/A,,Unknown,140,2013-04-03 02:56:00
10:56 PM,21.9,18.0,85,30.41,-9999.0,SE,3.5,-,N/A,,Unknown,140,2013-04-03 03:56:00
11:56 PM,19.9,17.1,89,30.41,-9999.0,Calm,Calm,-,N/A,,Unknown,0,2013-04-03 04:56:00